This is the latest recevied weather packets stored in our database for station/object KD9JB-1. If no packets are shown the sender has not sent any weather packets the latest 1 day(s).
| Time | Temp. | Humidity | Pressure | Rain* | Wind** | Luminosity | Snow |
|---|---|---|---|---|---|---|---|
| 1778031995 | 10° C | 93% | 1007.5 hPa | 1.02 mm | 1.34 m/s, 351° | - | - |
| 1778031695 | 10° C | 93% | 1007.6 hPa | 0.51 mm | 1.34 m/s, 23° | - | - |
| 1778031395 | 10° C | 93% | 1007.5 hPa | 0 mm | 0.89 m/s, 326° | - | - |
| 1778031095 | 10° C | 93% | 1007.4 hPa | 0 mm | 0.89 m/s, 8° | - | - |
| 1778030795 | 10° C | 93% | 1007.4 hPa | 0 mm | 0.45 m/s, 25° | - | - |
| 1778030495 | 10° C | 92% | 1007.4 hPa | 0 mm | 0.45 m/s, 206° | - | - |
| 1778030195 | 10° C | 92% | 1007.4 hPa | 0 mm | 0.89 m/s, 35° | - | - |
| 1778029895 | 10.56° C | 93% | 1007.4 hPa | 0.25 mm | 0.89 m/s, 178° | - | - |
| 1778029595 | 10.56° C | 93% | 1007.4 hPa | 1.27 mm | 0.89 m/s, 56° | - | - |
| 1778029295 | 10.56° C | 93% | 1007.4 hPa | 1.27 mm | 0.89 m/s, 145° | - | - |
| 1778028995 | 10.56° C | 93% | 1007.3 hPa | 1.27 mm | 0.89 m/s, 35° | - | - |
| 1778028695 | 10.56° C | 93% | 1007.4 hPa | 1.52 mm | 1.34 m/s, 46° | - | - |
| 1778028395 | 10.56° C | 93% | 1007.5 hPa | 1.78 mm | 0.89 m/s, 329° | - | - |
| 1778028095 | 10.56° C | 93% | 1007.3 hPa | 1.78 mm | 0.89 m/s, 349° | - | - |
| 1778027795 | 10.56° C | 93% | 1007.3 hPa | 2.03 mm | 0.89 m/s, 46° | - | - |
| 1778027495 | 10.56° C | 93% | 1007.4 hPa | 2.03 mm | 0.89 m/s, 46° | - | - |
| 1778027195 | 10.56° C | 93% | 1007.2 hPa | 2.29 mm | 0.89 m/s, 8° | - | - |
| 1778026895 | 10.56° C | 93% | 1007.2 hPa | 2.29 mm | 0.89 m/s, 46° | - | - |
| 1778026595 | 10.56° C | 93% | 1007.2 hPa | 2.29 mm | 0.89 m/s, 9° | - | - |
| 1778026295 | 10.56° C | 93% | 1006.9 hPa | 2.03 mm | 1.34 m/s, 89° | - | - |
| 1778025995 | 10.56° C | 93% | 1007.8 hPa | 1.02 mm | 1.79 m/s, 18° | - | - |
| 1778025695 | 10.56° C | 93% | 1007.7 hPa | 1.02 mm | 1.34 m/s, 52° | - | - |
| 1778025395 | 10.56° C | 93% | 1007.6 hPa | 1.27 mm | 1.34 m/s, 336° | - | - |
| 1778025095 | 10.56° C | 93% | 1007.4 hPa | 1.02 mm | 0.89 m/s, 42° | - | - |
| 1778024795 | 10.56° C | 93% | 1007.7 hPa | 0.76 mm | 1.34 m/s, 6° | - | - |
* Rain latest hour (hover to see other rain measurements)
** Current wind speed in m/s (hover to see current wind gust speed)